Location: Unspecified
(0.0000°N, 0.0000°E)
Time: 21:23:33
(UTC+00:00)

Vanguard 1 - Pass Details

Date: 12 February 2018
Orbit: 650 x 3833 km, 34.3° (Epoch: 23 May)

Event Time Altitude Azimuth Distance (km) Brightness Sun altitude
Exits shadow 04:09:33 25° 236° (SW) 3,781 12.6 -30.2°
Maximum altitude 04:15:10 32° 202° (SSW) 3,928 13.0 -28.8°
Drops below altitude 10° 04:32:16 10° 145° (SE) 6,659 14.9 -24.7°
Sets 04:39:14 0° 136° (SE) 7,913 15.6 -23.0°
